sat.trackr.live / text

‹ back to catalog

STARLINK-36547

NORAD 67520 · 2026-012AD

PAYLOAD ACTIVE UNKNOWN

§ Identity

Operator
Country
US
Launch date
2026-01-18
Launch site
AFETR
Launch vehicle
Mass (kg)
RCS (m²)

Purposes: comms

External: N2YO · Heavens-Above · Gunter

§ Orbital elements

Epoch: 2026-05-24T23:44:24.732096Z

Period
94.27 min
Inclination
43.0008°
Eccentricity
0.0000501
Mean motion
15.27575943 rev/d
Perigee alt
482.7 km
Apogee alt
483.4 km
Semi-major
6,861.2 km
B*
6.4485e-4
RAAN
243.2533°
Arg perigee
268.0037°
Mean anomaly
92.0757°
Rev number
1,943

§ Raw data

STARLINK-365471 67520U 26012AD  26144.98917514  .00017523  00000+0  64485-3 0  99992 67520  43.0008 243.2533 0000501 268.0037  92.0757 15.27575943 19436

JSON: /api/v1/satellites/67520 · /tle

For live sub-satellite position, see the globe view (requires WebGL).

§ Visibility from observer

Set your observer location to see the next 7 days of passes ≥ 10°. The values pass through the URL so the page stays shareable.

No JS? Fill the form by hand. The geolocation button needs JavaScript.